Lid_Strength_Index
0 1 1 2 3 5 7 12 16 11 12 19 26 22 20 16 17 16 17 19 21 23 24 27 24 22 20 16 17 21 16 20 24 20 16 15 15 18 19 24 22 19 20 20
-0 0 1 2 3 5 10 14 14 11 13 21 22 20 17 16 16 17 17 18 18 20 24 25 24 20 17 16 17 19 18 25 29 23 19 17 17 16 15 21 20 21 22 20
-1 -0 1 2 4 5 9 13 17 15 15 16 17 19 19 18 16 16 16 17 17 20 23 20 24 20 17 16 16 13 14 21 26 25 21 20 20 18 17 22 23 20 19 17
-1 -0 1 2 4 5 9 13 15 15 19 18 17 17 18 18 19 16 16 17 17 19 24 23 23 20 19 17 15 15 16 25 24 21 19 19 19 19 19 21 20 21 19 18
-0 -1 -0 1 3 4 9 14 15 15 17 16 17 16 19 18 18 17 17 19 17 18 21 20 23 21 21 20 18 17 17 25 20 24 19 18 20 18 18 18 19 18 18 17
0 -1 -1 1 3 4 10 11 12 13 15 16 17 18 17 17 17 16 16 16 17 18 18 18 19 18 18 18 19 20 19 22 27 29 21 22 24 18 16 18 17 18 19 15
0 -0 -0 -0 2 3 8 11 11 13 16 16 16 16 16 17 17 17 17 16 17 17 17 18 19 20 18 18 18 16 21 21 25 29 27 29 18 18 16 17 17 16 15 14
1 0 -0 -0 2 2 5 8 10 11 15 15 16 16 16 16 16 17 17 16 17 17 18 22 28 29 27 28 19 18 15 18 29 31 29 23 18 16 16 18 18 14 16 16
1 1 0 -0 1 1 3 6 6 8 13 15 14 16 15 17 17 18 18 16 17 18 20 27 29 28 33 32 28 17 16 16 27 32 34 30 20 16 15 14 20 15 16 17
1 0 0 -0 0 1 3 6 5 7 12 13 13 15 15 14 15 17 18 18 18 18 24 31 29 28 30 29 29 24 25 21 26 28 31 26 19 17 14 22 19 15 17 16
1 0 0 -0 0 1 2 7 4 4 11 14 12 13 15 15 15 17 17 17 18 24 25 26 28 30 29 29 25 24 25 25 29 29 29 28 18 16 17 16 15 16 17 16
1 0 0 -0 0 1 1 8 8 9 11 14 14 14 14 14 13 15 16 16 19 18 24 27 29 31 31 30 28 21 25 21 23 22 22 17 17 15 14 14 15 16 17 15
1 0 0 -0 -0 0 2 7 9 11 14 15 14 15 14 13 14 13 16 17 16 18 19 24 27 27 25 29 28 25 22 20 21 20 18 17 16 15 15 15 15 15 15 14
1 0 0 -0 0 0 1 7 6 8 12 15 17 13 15 13 13 14 15 16 17 18 20 26 28 27 22 24 23 23 22 20 22 21 18 17 16 16 15 15 16 15 14 14
1 0 -0 -0 0 0 4 6 5 7 8 17 18 15 15 13 14 15 15 16 17 18 22 27 25 24 23 24 24 25 21 21 20 20 18 18 18 17 17 16 16 16 15 15
0 1 1 0 1 3 5 10 8 9 10 15 19 16 16 15 15 16 17 17 20 20 22 27 25 21 22 29 31 21 20 19 18 18 20 18 18 18 19 18 18 18 17 17
1 1 1 1 2 3 7 9 8 8 10 16 20 20 17 16 16 17 18 19 22 20 25 28 25 24 24 27 28 19 20 18 19 20 18 19 18 18 17 18 19 21 22 23
1 1 1 0 2 2 8 7 5 8 13 15 20 22 19 16 18 19 18 19 20 25 26 26 27 26 26 26 20 24 24 25 23 20 20 20 22 22 23 23 23 23 22 23
2 1 2 1 8 10 9 5 7 9 12 18 20 22 23 17 19 19 19 18 20 23 27 28 27 30 27 20 20 23 22 20 21 23 26 27 24 22 25 25 26 22 24 26
2 3 8 11 10 4 6 9 11 12 15 17 21 20 22 19 20 22 21 23 24 26 26 25 27 26 21 18 18 22 23 20 24 25 26 28 25 24 25 23 21 21 20 23
8 10 12 9 5 10 11 12 12 14 17 19 21 20 22 19 21 22 21 24 27 27 29 29 32 29 24 23 19 16 21 21 21 25 24 17 19 19 22 25 24 23 24 23
8 9 8 10 10 11 13 14 14 14 18 23 21 21 19 21 20 22 24 26 28 29 33 31 29 23 22 25 26 28 23 21 21 24 23 23 21 19 19 20 22 23 25 27
7 9 11 11 11 15 16 18 18 23 23 22 21 22 22 22 22 27 26 27 29 32 29 28 24 22 24 25 32 31 34 26 26 28 31 32 30 33 23 22 28 23 25 26
10 12 16 13 16 15 18 18 18 21 21 19 20 24 21 23 24 26 29 36 32 34 32 26 20 21 22 27 32 31 27 26 23 23 26 27 27 27 33 31 27 25 24 27
10 11 15 15 21 25 28 27 23 21 16 20 22 22 22 25 27 30 33 33 31 28 25 22 21 22 26 29 32 29 28 25 23 25 23 26 28 28 27 33 34 30 27 27
12 14 17 20 19 19 21 21 18 15 16 17 16 21 19 24 26 30 28 26 26 21 23 20 24 24 26 27 31 27 29 28 25 25 26 26 27 28 27 36 35 31 26 26
15 16 18 20 17 17 19 19 17 13 15 17 17 20 21 27 29 28 27 24 20 21 22 25 26 24 25 25 31 30 27 28 27 27 27 26 31 33 32 28 31 34 32 30